Other Public Products
Issued by NWS Grand Forks, ND

Home | Current Version | Previous Version | Graphics & Text | Print | Product List | Glossary On
Versions: 1 2 3 4 5 6 7 8 9 10 11 12 13 14 15 16 17 18 19 20 21 22 23 24 25 26 27 28 29 30 31 32 33 34 35 36 37 38 39 40 41 42 43 44 45 46 47 48 49 50
000
FPUS83 KFGF 131431
OPUFGF
PRAIRIE TO PINES WEATHER ROUNDUP
NATIONAL WEATHER SERVICE EASTERN NORTH DAKOTA/GRAND FORKS ND
900 AM CDT SUN JUL 13 2014

 **SATELLITE DATA USED TO AUGMENT SKY COVER AT AUTOMATED STATIONS**
 *****  WEATHER ACROSS EASTERN NORTH DAKOTA  *****

CITY           SKY/WX    TMP DP  RH WIND       PRES   REMARKS
GRAND FORKS    SUNNY     62  51  67 NW9       29.95S
GRAND FORKS AF SUNNY     62  52  68 NW10      29.97R
GRAND CITY NWS   N/A     61 N/A N/A NW12        N/A
BUXTON           N/A     64  55  70 NW9         N/A
DEVILS LAKE    SUNNY     64  46  52 NW18      29.99S
FARGO          SUNNY     65  51  60 MISG      29.98R
WAHPETON ARPT  PTSUNNY   64  50  59 W8        30.01S
$$

 *****  WEATHER ACROSS CENTRAL AND WESTERN NORTH DAKOTA  *****

CITY           SKY/WX    TMP DP  RH WIND       PRES   REMARKS
JAMESTOWN      SUNNY     64  49  57 NW13G20   30.04R
BISMARCK       SUNNY     64  48  56 NW7       30.11S
MINOT          SUNNY     61  45  55 W14       30.08S
MINOT AFB      SUNNY     60  49  67 NW14      30.08R
GARRISON         N/A     61  48  62 NW13      30.11R
WILLISTON      SUNNY     64  44  48 NW8       30.17S
DICKINSON      MOSUNNY   60  50  69 NW6       30.16R
HETTINGER      MOSUNNY   62  52  69 N13       30.18R
$$

 *****  OTHER OBSERVATIONS NORTHEAST NORTH DAKOTA  *****

CITY           SKY/WX    TMP DP  RH WIND       PRES   REMARKS
WALHALLA         N/A     61  50  67 W20         N/A
LANGDON        FAIR      59  48  67 NW16G23   29.97S
CAVALIER       FAIR      63  50  63 W13       29.93F
GRAFTON        FAIR      63  52  67 W13       29.94S
CANDO          FAIR      59  50  72 NW16      30.02S
FORT TOTTEN    NOT AVBL
ROLLA          FAIR      59  46  63 NW16G25   30.02S
RUGBY          FAIR      59  50  72 NW20      30.04S
 ***** THE ABOVE OBSERVATIONS ARE NON NWS ARE NOT QUALITY
        CONTROLLED AND MAY MIS-REPORT RAIN FOR SNOW...
$$

 *****  OTHER OBSERVATIONS SOUTHEAST NORTH DAKOTA *****

CITY           SKY/WX    TMP DP  RH WIND       PRES   REMARKS
COOPERSTOWN    NOT AVBL
VALLEY CITY    FAIR      64  50  59 NW12      30.03R
OAKES          NOT AVBL
GWINNER        SUNNY     66  52  59 NW10      30.04S
SHEYENNE NWR     N/A     66  56  71 NW7       29.95S
BUFFALO          N/A     66  43  43 W10         N/A
WYNDMERE       NOT AVBL
 ***** THE ABOVE OBSERVATIONS ARE NON NWS ARE NOT QUALITY
       CONTROLLED AND MAY MIS-REPORT RAIN FOR SNOW...
$$

  *****  WEATHER ACROSS NORTHERN MINNESOTA  *****

CITY           SKY/WX    TMP DP  RH WIND       PRES   REMARKS
FLAG ISLAND    MOSUNNY   61  48  63 NW20G25   29.81S
WARROAD        SUNNY     61  54  77 W12G21    29.87S
ROSEAU         SUNNY     63  54  72 W12G23    29.88S
HALLOCK        SUNNY     63  52  67 W14       29.91S
THF RVR FALLS  SUNNY     57  52  82 W12       29.94S
HALSTAD          N/A     64  48  56 NW12        N/A
FOSSTON        SUNNY     57  52  82 W9        29.96R
BAUDETTE       SUNNY     61  49  64 W14G24    29.86S
WASKISH        SUNNY     63  55  77 SW14G20   29.89S
CROOKSTON      SUNNY     61  52  72 NW12      29.96S
$$
  *****  WEATHER ACROSS CENTRAL AND WEST MINNESOTA  *****

CITY           SKY/WX    TMP DP  RH WIND       PRES   REMARKS
BEMIDJI        MOSUNNY   60  54  79 W13       29.93S
PARK RAPIDS    SUNNY     60  54  80 W10       29.96S
WADENA         SUNNY     63  54  72 SW8       29.98S
DETROIT LAKES  SUNNY     63  50  63 NW12      29.99R
MOORHEAD       SUNNY     66  52  59 NW10      29.99S
FERGUS FALLS   MOSUNNY   63  52  67 W9        30.01S
ELBOW LAKE     FAIR      63  55  77 W9        30.02R
MORRIS MN      SUNNY     66  57  72 NW8       30.02R
STAPLES        SUNNY     64  52  63 W10       29.98S
WHEATON        SUNNY     64  55  72 W6        30.04S
$$
  *****  WEATHER ELSEWHERE ACROSS MINNESOTA  *****

CITY           SKY/WX    TMP DP  RH WIND       PRES   REMARKS
DULUTH         SUNNY     61  48  62 W13       29.92R
INTRNTL FALLS  MOSUNNY   59  50  72 W12G18    29.84S
ELY            PTSUNNY   57  48  72 W9        29.87R
CLOQUET        SUNNY     61  46  59 W10       29.93S
BRAINERD       MOSUNNY   66  51  58 W9        29.97S
HIBBING        MOSUNNY   61  52  72 VRB7      29.90S
ALEXANDRIA     MOSUNNY   63  53  70 W9        30.02R
SAINT CLOUD    SUNNY     65  52  62 W6        30.00R
MINNEAPOLIS    SUNNY     67  56  67 NW5       29.98S
$$

  *****  WEATHER ACROSS SOUTH DAKOTA  *****

CITY           SKY/WX    TMP DP  RH WIND       PRES   REMARKS
SIOUX FALLS    MOSUNNY   70  63  78 NW7       30.06S
BROOKINGS      NOT AVBL
WATERTOWN      SUNNY     67  59  75 SW6       30.06R
HURON          SUNNY     69  61  75 N5        30.07R
SISSETON         N/A     68  57  68 W9        30.02R
ABERDEEN       SUNNY     68  55  63 W12       30.07R
MITCHELL       MOSUNNY   72  63  73 W5        30.07F
PIERRE         SUNNY     70  64  81 W8        30.09S
MOBRIDGE       SUNNY     64  58  80 NW6       30.09R
RAPID CITY     SUNNY     68  55  63 NW6       30.22R
$$

  *****  SOME WEATHER IN NEARBY STATES *****

CITY           SKY/WX    TMP DP  RH WIND       PRES   REMARKS
GLASGOW MT     NOT AVBL
GREAT FALLS MT NOT AVBL
CHEYENNE WY    SUNNY     65  56  72 CALM      30.38R
SCOTTSBLUFF NE MOSUNNY   68  64  87 N7        30.27S
OMAHA NE       MOSUNNY   76  67  73 NW5       30.06S
DES MOINES IA  MOSUNNY   76  69  79 NW8       30.02S
DAVENPORT IA     N/A     69  65  86 NW7       30.00S
CHICAGO IL     PTSUNNY   69  63  81 W8        29.95S
EAU CLAIRE WI  PTSUNNY   65  56  72 VRB3      29.95R
LA CROSSE WI   PTSUNNY   71  65  81 W8        29.93S
$$

  *****  SOME NATIONAL WEATHER *****

CITY           SKY/WX    TMP DP  RH WIND       PRES   REMARKS
LA GUARDIA NY  PTSUNNY   76  67  73 S7        30.06F
RALEIGH NC     PTSUNNY   84  71  65 SW7       30.15S
ATLANTA GA     MOSUNNY   80  71  74 CALM      30.19R
NEW ORLEANS LA PTSUNNY   84  77  79 N3        30.09S HX  94
OKLAHOMA CITY  MOSUNNY   80  62  54 SW12      30.08R
ALBUQUERQUE NM PTSUNNY   73  53  49 E16       30.30R
SALT LAKE CITY MOSUNNY   76  55  48 N6        30.19R
LOS ANGELES CA MOSUNNY   68  63  84 NW3       29.91F
BOISE ID       NOT AVBL
SEATTLE WA     SUNNY     63  54  72 CALM      30.12S
$$

*** WEATHER ACROSS MANITOBA...SASKATCHEWAN AND ONTARIO ***
                ***ONTARIO***

CITY           SKY/WX    TMP DP  RH WIND       PRES   REMARKS
GERALDTON      PTSUNNY   59  46  63 NW7       29.69S
THUNDER BAY    MOSUNNY   63  50  63 W12G21    29.78S
SIOUX LOOKOUT  CLOUDY    55  50  82 W8        29.72S
TORONTO        LGT RAIN  77  70  78 SW16G23   29.73F
BIG TROUT LK   PTSUNNY   52  48  87 W8        29.57R
PICKLE LAKE    CLOUDY    52  46  82 W9        29.63F
DRYDEN         CLOUDY    55  50  82 W13G23    29.74F
KENORA         CLOUDY    57  48  72 W13G22    29.80S
$$
                *** MANITOBA***

CITY           SKY/WX    TMP DP  RH WIND       PRES   REMARKS
BRANDON        MOSUNNY   59  46  63 NW20G29   29.99S
DAUPHIN        CLOUDY    57  45  62 NW22G29   29.95R
ISLAND LAKE    CLOUDY    46  43  87 N9        29.66R
PILOT MOUND      N/A     57  48  72 NW15        N/A
THE PAS        PTSUNNY   55  45  67 NW18      29.93F
THOMPSON       LGT RAIN  45  45 100 N15G25    29.79R
WINNIPEG       PTSUNNY   57  50  77 NW20G29   29.88R
LYNN LAKE      LGT RAIN  50  48  93 N15G26    30.00R FOG
CHURCHILL      CLOUDY    41  39  93 N24G31    29.87R
GILLAM         DRIZZLE  N/A N/A N/A N22         N/A
$$
                ***SASKATCHEWAN***

CITY           SKY/WX    TMP DP  RH WIND       PRES   REMARKS
ESTEVAN        NOT AVBL
KINDERSLEY     PTSUNNY   64  52  63 SW2       30.23S
LLOYDMINSTER   MOSUNNY   57  45  62 E6        30.26R
PRINCE ALBERT  MOSUNNY   57  45  62 NW16G22   30.17S
REGINA         SUNNY     57  46  67 NW10      30.17S


USA.gov is the U.S. government's official web portal to all federal, state and local government web resources and services.